Year,Month,Day,Hour,Minute,Value (Times are PST for temperature in C)
2010,06,23,00,00,13.10
2010,06,23,00,01,13.10
2010,06,23,00,02,13.10
2010,06,23,00,03,13.10
2010,06,23,00,04,13.10
2010,06,23,00,05,13.10
2010,06,23,00,06,13.10
2010,06,23,00,07,13.10
2010,06,23,00,08,13.10
2010,06,23,00,09,13.10
2010,06,23,00,10,13.10
2010,06,23,00,11,13.10
2010,06,23,00,12,13.10
2010,06,23,00,13,13.00
2010,06,23,00,14,13.00
2010,06,23,00,15,13.00
2010,06,23,00,16,13.00
2010,06,23,00,17,13.00
2010,06,23,00,18,13.00
2010,06,23,00,19,13.00
2010,06,23,00,20,12.90
2010,06,23,00,21,12.90
2010,06,23,00,22,12.90
2010,06,23,00,23,12.90
2010,06,23,00,24,12.80
2010,06,23,00,25,12.80
2010,06,23,00,26,12.80
2010,06,23,00,27,12.80
2010,06,23,00,28,12.80
2010,06,23,00,29,12.80
2010,06,23,00,30,12.80
2010,06,23,00,31,12.70
2010,06,23,00,32,12.70
2010,06,23,00,33,12.70
2010,06,23,00,34,12.70
2010,06,23,00,35,12.60
2010,06,23,00,36,12.60
2010,06,23,00,37,12.60
2010,06,23,00,38,12.60
2010,06,23,00,39,12.60
2010,06,23,00,40,12.60
2010,06,23,00,41,12.50
2010,06,23,00,42,12.50
2010,06,23,00,43,12.50
2010,06,23,00,44,12.50
2010,06,23,00,45,12.50
2010,06,23,00,46,12.50
2010,06,23,00,47,12.50
2010,06,23,00,48,12.50
2010,06,23,00,49,12.50
2010,06,23,00,50,12.50
2010,06,23,00,51,12.50
2010,06,23,00,52,12.50
2010,06,23,00,53,12.50
2010,06,23,00,54,12.50
2010,06,23,00,55,12.50
2010,06,23,00,56,12.50
2010,06,23,00,57,12.50
2010,06,23,00,58,12.50
2010,06,23,00,59,12.50
2010,06,23,01,00,12.60
2010,06,23,01,01,12.60
2010,06,23,01,02,12.60
2010,06,23,01,03,12.60
2010,06,23,01,04,12.60
2010,06,23,01,05,12.60
2010,06,23,01,06,12.60
2010,06,23,01,07,12.60
2010,06,23,01,08,12.60
2010,06,23,01,09,12.60
2010,06,23,01,10,12.70
2010,06,23,01,11,12.70
2010,06,23,01,12,12.70
2010,06,23,01,13,12.70
2010,06,23,01,14,12.70
2010,06,23,01,15,12.70
2010,06,23,01,16,12.70
2010,06,23,01,17,12.70
2010,06,23,01,18,12.70
2010,06,23,01,19,12.70
2010,06,23,01,20,12.70
2010,06,23,01,21,12.70
2010,06,23,01,22,12.70
2010,06,23,01,23,12.70
2010,06,23,01,24,12.70
2010,06,23,01,25,12.80
2010,06,23,01,26,12.80
2010,06,23,01,27,12.80
2010,06,23,01,28,12.80
2010,06,23,01,29,12.80
2010,06,23,01,30,12.80
2010,06,23,01,31,12.80
2010,06,23,01,32,12.80
2010,06,23,01,33,12.80
2010,06,23,01,34,12.80
2010,06,23,01,35,12.80
2010,06,23,01,36,12.80
2010,06,23,01,37,12.80
2010,06,23,01,38,12.80
2010,06,23,01,39,12.80
2010,06,23,01,40,12.80
2010,06,23,01,41,12.80
2010,06,23,01,42,12.80
2010,06,23,01,43,12.80
2010,06,23,01,44,12.80
2010,06,23,01,45,12.80
2010,06,23,01,46,12.80
2010,06,23,01,47,12.80
2010,06,23,01,48,12.80
2010,06,23,01,49,12.80
2010,06,23,01,50,12.80
2010,06,23,01,51,12.80
2010,06,23,01,52,12.80
2010,06,23,01,53,12.80
2010,06,23,01,54,12.80
2010,06,23,01,55,12.80
2010,06,23,01,56,12.80
2010,06,23,01,57,12.80
2010,06,23,01,58,12.80
2010,06,23,01,59,12.80
2010,06,23,02,00,12.80
2010,06,23,02,01,12.80
2010,06,23,02,02,12.80
2010,06,23,02,03,12.80
2010,06,23,02,04,12.80
2010,06,23,02,05,12.90
2010,06,23,02,06,12.90
2010,06,23,02,07,12.90
2010,06,23,02,08,12.90
2010,06,23,02,09,12.90
2010,06,23,02,10,12.90
2010,06,23,02,11,12.90
2010,06,23,02,12,12.90
2010,06,23,02,13,12.90
2010,06,23,02,14,12.90
2010,06,23,02,15,12.90
2010,06,23,02,16,12.90
2010,06,23,02,17,12.90
2010,06,23,02,18,12.90
2010,06,23,02,19,12.90
2010,06,23,02,20,12.90
2010,06,23,02,21,13.00
2010,06,23,02,22,13.00
2010,06,23,02,23,13.00
2010,06,23,02,24,13.00
2010,06,23,02,25,13.00
2010,06,23,02,26,13.00
2010,06,23,02,27,13.00
2010,06,23,02,28,13.00
2010,06,23,02,29,13.00
2010,06,23,02,30,13.00
2010,06,23,02,31,13.00
2010,06,23,02,32,13.00
2010,06,23,02,33,13.00
2010,06,23,02,34,13.00
2010,06,23,02,35,13.00
2010,06,23,02,36,13.00
2010,06,23,02,37,13.00
2010,06,23,02,38,13.00
2010,06,23,02,39,13.00
2010,06,23,02,40,13.00
2010,06,23,02,41,13.10
2010,06,23,02,42,13.10
2010,06,23,02,43,13.00
2010,06,23,02,44,13.00
2010,06,23,02,45,13.00
2010,06,23,02,46,13.00
2010,06,23,02,47,13.00
2010,06,23,02,48,13.00
2010,06,23,02,49,13.00
2010,06,23,02,50,13.00
2010,06,23,02,51,13.00
2010,06,23,02,52,13.00
2010,06,23,02,53,13.00
2010,06,23,02,54,13.00
2010,06,23,02,55,13.00
2010,06,23,02,56,13.00
2010,06,23,02,57,13.00
2010,06,23,02,58,13.00
2010,06,23,02,59,13.00
2010,06,23,03,00,13.00
2010,06,23,03,01,13.00
2010,06,23,03,02,13.00
2010,06,23,03,03,13.00
2010,06,23,03,04,13.00
2010,06,23,03,05,13.00
2010,06,23,03,06,13.00
2010,06,23,03,07,13.10
2010,06,23,03,08,13.00
2010,06,23,03,09,13.00
2010,06,23,03,10,13.00
2010,06,23,03,11,13.00
2010,06,23,03,12,13.00
2010,06,23,03,13,13.00
2010,06,23,03,14,13.00
2010,06,23,03,15,13.00
2010,06,23,03,16,13.00
2010,06,23,03,17,13.00
2010,06,23,03,18,13.00
2010,06,23,03,19,13.00
2010,06,23,03,20,13.00
2010,06,23,03,21,13.00
2010,06,23,03,22,13.00
2010,06,23,03,23,13.00
2010,06,23,03,24,12.90
2010,06,23,03,25,12.90
2010,06,23,03,26,12.90
2010,06,23,03,27,12.90
2010,06,23,03,28,12.90
2010,06,23,03,29,12.90
2010,06,23,03,30,12.90
2010,06,23,03,31,12.90
2010,06,23,03,32,12.90
2010,06,23,03,33,12.90
2010,06,23,03,34,12.90
2010,06,23,03,35,12.90
2010,06,23,03,36,12.80
2010,06,23,03,37,12.80
2010,06,23,03,38,12.80
2010,06,23,03,39,12.80
2010,06,23,03,40,12.80
2010,06,23,03,41,12.80
2010,06,23,03,42,12.80
2010,06,23,03,43,12.80
2010,06,23,03,44,12.80
2010,06,23,03,45,12.80
2010,06,23,03,46,12.80
2010,06,23,03,47,12.80
2010,06,23,03,48,12.80
2010,06,23,03,49,12.80
2010,06,23,03,50,12.80
2010,06,23,03,51,12.80
2010,06,23,03,52,12.80
2010,06,23,03,53,12.80
2010,06,23,03,54,12.80
2010,06,23,03,55,12.80
2010,06,23,03,56,12.80
2010,06,23,03,57,12.80
2010,06,23,03,58,12.80
2010,06,23,03,59,12.80
2010,06,23,04,00,12.80
2010,06,23,04,01,12.80
2010,06,23,04,02,12.80
2010,06,23,04,03,12.80
2010,06,23,04,04,12.80
2010,06,23,04,05,12.80
2010,06,23,04,06,12.80
2010,06,23,04,07,12.80
2010,06,23,04,08,12.80
2010,06,23,04,09,12.80
2010,06,23,04,10,12.80
2010,06,23,04,11,12.80
2010,06,23,04,12,12.80
2010,06,23,04,13,12.90
2010,06,23,04,14,12.90
2010,06,23,04,15,13.00
2010,06,23,04,16,13.00
2010,06,23,04,17,13.00
2010,06,23,04,18,13.10
2010,06,23,04,19,13.10
2010,06,23,04,20,13.10
2010,06,23,04,21,13.20
2010,06,23,04,22,13.20
2010,06,23,04,23,13.20
2010,06,23,04,24,13.30
2010,06,23,04,25,13.30
2010,06,23,04,26,13.30
2010,06,23,04,27,13.30
2010,06,23,04,28,13.30
2010,06,23,04,29,13.30
2010,06,23,04,30,13.30
2010,06,23,04,31,13.40
2010,06,23,04,32,13.40
2010,06,23,04,33,13.40
2010,06,23,04,34,13.40
2010,06,23,04,35,13.40
2010,06,23,04,36,13.40
2010,06,23,04,37,13.40
2010,06,23,04,38,13.40
2010,06,23,04,39,13.50
2010,06,23,04,40,13.50
2010,06,23,04,41,13.50
2010,06,23,04,42,13.50
2010,06,23,04,43,13.50
2010,06,23,04,44,13.50
2010,06,23,04,45,13.60
2010,06,23,04,46,13.60
2010,06,23,04,47,13.60
2010,06,23,04,48,13.60
2010,06,23,04,49,13.60
2010,06,23,04,50,13.70
2010,06,23,04,51,13.70
2010,06,23,04,52,13.70
2010,06,23,04,53,13.70
2010,06,23,04,54,13.70
2010,06,23,04,55,13.70
2010,06,23,04,56,13.70
2010,06,23,04,57,13.70
2010,06,23,04,58,13.70
2010,06,23,04,59,13.70
2010,06,23,05,00,13.70
2010,06,23,05,01,13.70
2010,06,23,05,02,13.70
2010,06,23,05,03,13.70
2010,06,23,05,04,13.70
2010,06,23,05,05,13.70
2010,06,23,05,06,13.70
2010,06,23,05,07,13.70
2010,06,23,05,08,13.70
2010,06,23,05,09,13.70
2010,06,23,05,10,13.70
2010,06,23,05,11,13.70
2010,06,23,05,12,13.70
2010,06,23,05,13,13.70
2010,06,23,05,14,13.70
2010,06,23,05,15,13.60
2010,06,23,05,16,13.60
2010,06,23,05,17,13.60
2010,06,23,05,18,13.60
2010,06,23,05,19,13.60
2010,06,23,05,20,13.60
2010,06,23,05,21,13.50
2010,06,23,05,22,13.50
2010,06,23,05,23,13.50
2010,06,23,05,24,13.40
2010,06,23,05,25,13.40
2010,06,23,05,26,13.30
2010,06,23,05,27,13.30
2010,06,23,05,28,13.30
2010,06,23,05,29,13.30
2010,06,23,05,30,13.30
2010,06,23,05,31,13.20
2010,06,23,05,32,13.20
2010,06,23,05,33,13.10
2010,06,23,05,34,13.10
2010,06,23,05,35,13.10
2010,06,23,05,36,13.00
2010,06,23,05,37,13.00
2010,06,23,05,38,13.00
2010,06,23,05,39,12.90
2010,06,23,05,40,12.90
2010,06,23,05,41,12.90
2010,06,23,05,42,12.80
2010,06,23,05,43,12.80
2010,06,23,05,44,12.80
2010,06,23,05,45,12.80
2010,06,23,05,46,12.80
2010,06,23,05,47,12.70
2010,06,23,05,48,12.70
2010,06,23,05,49,12.70
2010,06,23,05,50,12.70
2010,06,23,05,51,12.60
2010,06,23,05,52,12.60
2010,06,23,05,53,12.60
2010,06,23,05,54,12.60
2010,06,23,05,55,12.60
2010,06,23,05,56,12.60
2010,06,23,05,57,12.60
2010,06,23,05,58,12.60
2010,06,23,05,59,12.60
2010,06,23,06,00,12.60
2010,06,23,06,01,12.60
2010,06,23,06,02,12.60
2010,06,23,06,03,12.60
2010,06,23,06,04,12.60
2010,06,23,06,05,12.60
2010,06,23,06,06,12.70
2010,06,23,06,07,12.70
2010,06,23,06,08,12.70
2010,06,23,06,09,12.70
2010,06,23,06,10,12.70
2010,06,23,06,11,12.70
2010,06,23,06,12,12.80
2010,06,23,06,13,12.80
2010,06,23,06,14,12.80
2010,06,23,06,15,12.80
2010,06,23,06,16,12.80
2010,06,23,06,17,12.80
2010,06,23,06,18,12.80
2010,06,23,06,19,12.90
2010,06,23,06,20,12.90
2010,06,23,06,21,13.00
2010,06,23,06,22,13.00
2010,06,23,06,23,13.10
2010,06,23,06,24,13.10
2010,06,23,06,25,13.10
2010,06,23,06,26,13.20
2010,06,23,06,27,13.20
2010,06,23,06,28,13.20
2010,06,23,06,29,13.20
2010,06,23,06,30,13.30
2010,06,23,06,31,13.30
2010,06,23,06,32,13.30
2010,06,23,06,33,13.30
2010,06,23,06,34,13.30
2010,06,23,06,35,13.30
2010,06,23,06,36,13.30
2010,06,23,06,37,13.30
2010,06,23,06,38,13.40
2010,06,23,06,39,13.40
2010,06,23,06,40,13.40
2010,06,23,06,41,13.50
2010,06,23,06,42,13.50
2010,06,23,06,43,13.50
2010,06,23,06,44,13.50
2010,06,23,06,45,13.60
2010,06,23,06,46,13.60
2010,06,23,06,47,13.70
2010,06,23,06,48,13.70
2010,06,23,06,49,13.70
2010,06,23,06,50,13.70
2010,06,23,06,51,13.80
2010,06,23,06,52,13.80
2010,06,23,06,53,13.80
2010,06,23,06,54,13.90
2010,06,23,06,55,13.90
2010,06,23,06,56,13.90
2010,06,23,06,57,14.00
2010,06,23,06,58,14.00
2010,06,23,06,59,14.00
2010,06,23,07,00,14.10
2010,06,23,07,01,14.10
2010,06,23,07,02,14.10
2010,06,23,07,03,14.20
2010,06,23,07,04,14.20
2010,06,23,07,05,14.20
2010,06,23,07,06,14.20
2010,06,23,07,07,14.20
2010,06,23,07,08,14.20
2010,06,23,07,09,14.20
2010,06,23,07,10,14.30
2010,06,23,07,11,14.30
2010,06,23,07,12,14.40
2010,06,23,07,13,14.40
2010,06,23,07,14,14.50
2010,06,23,07,15,14.50
2010,06,23,07,16,14.60
2010,06,23,07,17,14.60
2010,06,23,07,18,14.70
2010,06,23,07,19,14.80
2010,06,23,07,20,14.80
2010,06,23,07,21,14.90
2010,06,23,07,22,15.00
2010,06,23,07,23,15.10
2010,06,23,07,24,15.20
2010,06,23,07,25,15.30
2010,06,23,07,26,15.50
2010,06,23,07,27,15.60
2010,06,23,07,28,15.70
2010,06,23,07,29,15.80
2010,06,23,07,30,15.90
2010,06,23,07,31,16.10
2010,06,23,07,32,16.10
2010,06,23,07,33,16.20
2010,06,23,07,34,16.20
2010,06,23,07,35,16.30
2010,06,23,07,36,16.30
2010,06,23,07,37,16.40
2010,06,23,07,38,16.40
2010,06,23,07,39,16.40
2010,06,23,07,40,16.50
2010,06,23,07,41,16.60
2010,06,23,07,42,16.60
2010,06,23,07,43,16.70
2010,06,23,07,44,16.70
2010,06,23,07,45,16.70
2010,06,23,07,46,16.70
2010,06,23,07,47,16.70
2010,06,23,07,48,16.70
2010,06,23,07,49,16.70
2010,06,23,07,50,16.80
2010,06,23,07,51,16.80
2010,06,23,07,52,16.80
2010,06,23,07,53,16.80
2010,06,23,07,54,16.80
2010,06,23,07,55,16.80
2010,06,23,07,56,16.80
2010,06,23,07,57,16.90
2010,06,23,07,58,16.90
2010,06,23,07,59,16.90
2010,06,23,08,00,16.90
2010,06,23,08,01,16.90
2010,06,23,08,02,17.00
2010,06,23,08,03,17.00
2010,06,23,08,04,17.00
2010,06,23,08,05,17.00
2010,06,23,08,06,17.00
2010,06,23,08,07,17.10
2010,06,23,08,08,17.10
2010,06,23,08,09,17.10
2010,06,23,08,10,17.10
2010,06,23,08,11,17.10
2010,06,23,08,12,17.10
2010,06,23,08,13,17.10
2010,06,23,08,14,17.10
2010,06,23,08,15,17.10
2010,06,23,08,16,17.10
2010,06,23,08,17,17.20
2010,06,23,08,18,17.20
2010,06,23,08,19,17.20
2010,06,23,08,20,17.20
2010,06,23,08,21,17.20
2010,06,23,08,22,17.20
2010,06,23,08,23,17.20
2010,06,23,08,24,17.30
2010,06,23,08,25,17.30
2010,06,23,08,26,17.30
2010,06,23,08,27,17.30
2010,06,23,08,28,17.40
2010,06,23,08,29,17.40
2010,06,23,08,30,17.50
2010,06,23,08,31,17.50
2010,06,23,08,32,17.60
2010,06,23,08,33,17.70
2010,06,23,08,34,17.70
2010,06,23,08,35,17.80
2010,06,23,08,36,17.80
2010,06,23,08,37,17.90
2010,06,23,08,38,17.90
2010,06,23,08,39,17.90
2010,06,23,08,40,18.00
2010,06,23,08,41,18.10
2010,06,23,08,42,18.10
2010,06,23,08,43,18.10
2010,06,23,08,44,18.20
2010,06,23,08,45,18.20
2010,06,23,08,46,18.20
2010,06,23,08,47,18.20
2010,06,23,08,48,18.20
2010,06,23,08,49,18.20
2010,06,23,08,50,18.20
2010,06,23,08,51,18.20
2010,06,23,08,52,18.20
2010,06,23,08,53,18.20
2010,06,23,08,54,18.20
2010,06,23,08,55,18.20
2010,06,23,08,56,18.20
2010,06,23,08,57,18.20
2010,06,23,08,58,18.20
2010,06,23,08,59,18.30
2010,06,23,09,00,18.30
2010,06,23,09,01,18.30
2010,06,23,09,02,18.40
2010,06,23,09,03,18.40
2010,06,23,09,04,18.50
2010,06,23,09,05,18.60
2010,06,23,09,06,18.60
2010,06,23,09,07,18.70
2010,06,23,09,08,18.80
2010,06,23,09,09,18.90
2010,06,23,09,10,18.90
2010,06,23,09,11,19.00
2010,06,23,09,12,19.20
2010,06,23,09,13,19.30
2010,06,23,09,14,19.40
2010,06,23,09,15,19.50
2010,06,23,09,16,19.60
2010,06,23,09,17,19.70
2010,06,23,09,18,19.80
2010,06,23,09,19,19.90
2010,06,23,09,20,19.90
2010,06,23,09,21,19.90
2010,06,23,09,22,19.90
2010,06,23,09,23,20.00
2010,06,23,09,24,20.10
2010,06,23,09,25,20.10
2010,06,23,09,26,20.10
2010,06,23,09,27,20.20
2010,06,23,09,28,20.20
2010,06,23,09,29,20.20
2010,06,23,09,30,20.20
2010,06,23,09,31,20.20
2010,06,23,09,32,20.30
2010,06,23,09,33,20.40
2010,06,23,09,34,20.50
2010,06,23,09,35,20.50
2010,06,23,09,36,20.60
2010,06,23,09,37,20.70
2010,06,23,09,38,20.80
2010,06,23,09,39,20.80
2010,06,23,09,40,20.80
2010,06,23,09,41,20.80
2010,06,23,09,42,20.90
2010,06,23,09,43,21.00
2010,06,23,09,44,21.00
2010,06,23,09,45,21.00
2010,06,23,09,46,21.00
2010,06,23,09,47,21.00
2010,06,23,09,48,21.00
2010,06,23,09,49,21.00
2010,06,23,09,50,20.90
2010,06,23,09,51,20.90
2010,06,23,09,52,20.90
2010,06,23,09,53,21.00
2010,06,23,09,54,21.00
2010,06,23,09,55,21.10
2010,06,23,09,56,21.20
2010,06,23,09,57,21.30
2010,06,23,09,58,21.40
2010,06,23,09,59,21.50
2010,06,23,10,00,21.60
2010,06,23,10,01,21.60
2010,06,23,10,02,21.70
2010,06,23,10,03,21.80
2010,06,23,10,04,21.90
2010,06,23,10,05,22.00
2010,06,23,10,06,22.00
2010,06,23,10,07,22.10
2010,06,23,10,08,22.10
2010,06,23,10,09,22.10
2010,06,23,10,10,22.10
2010,06,23,10,11,22.10
2010,06,23,10,12,22.10
2010,06,23,10,13,22.00
2010,06,23,10,14,21.90
2010,06,23,10,15,21.90
2010,06,23,10,16,22.00
2010,06,23,10,17,22.00
2010,06,23,10,18,22.00
2010,06,23,10,19,21.80
2010,06,23,10,20,21.80
2010,06,23,10,21,21.80
2010,06,23,10,22,21.80
2010,06,23,10,23,21.90
2010,06,23,10,24,21.90
2010,06,23,10,25,21.90
2010,06,23,10,26,22.00
2010,06,23,10,27,21.90
2010,06,23,10,28,22.00
2010,06,23,10,29,22.00
2010,06,23,10,30,22.00
2010,06,23,10,31,22.00
2010,06,23,10,32,22.00
2010,06,23,10,33,22.10
2010,06,23,10,34,22.10
2010,06,23,10,35,22.00
2010,06,23,10,36,22.10
2010,06,23,10,37,22.10
2010,06,23,10,38,22.10
2010,06,23,10,39,22.20
2010,06,23,10,40,22.20
2010,06,23,10,41,22.30
2010,06,23,10,42,22.30
2010,06,23,10,43,22.30
2010,06,23,10,44,22.40
2010,06,23,10,45,22.40
2010,06,23,10,46,22.40
2010,06,23,10,47,22.30
2010,06,23,10,48,22.30
2010,06,23,10,49,22.20
2010,06,23,10,50,22.20
2010,06,23,10,51,22.30
2010,06,23,10,52,22.30
2010,06,23,10,53,22.30
2010,06,23,10,54,22.30
2010,06,23,10,55,22.20
2010,06,23,10,56,22.20
2010,06,23,10,57,22.20
2010,06,23,10,58,22.20
2010,06,23,10,59,22.10
2010,06,23,11,00,22.10
2010,06,23,11,01,22.10
2010,06,23,11,02,22.00
2010,06,23,11,03,22.00
2010,06,23,11,04,22.10
2010,06,23,11,05,22.10
2010,06,23,11,06,22.10
2010,06,23,11,07,22.20
2010,06,23,11,08,22.20
2010,06,23,11,09,22.20
2010,06,23,11,10,22.30
2010,06,23,11,11,22.40
2010,06,23,11,12,22.60
2010,06,23,11,13,22.60
2010,06,23,11,14,22.60
2010,06,23,11,15,22.60
2010,06,23,11,16,22.70
2010,06,23,11,17,22.80
2010,06,23,11,18,22.90
2010,06,23,11,19,22.90
2010,06,23,11,20,23.00
2010,06,23,11,21,23.10
2010,06,23,11,22,23.10
2010,06,23,11,23,23.20
2010,06,23,11,24,23.30
2010,06,23,11,25,23.20
2010,06,23,11,26,23.20
2010,06,23,11,27,23.20
2010,06,23,11,28,23.20
2010,06,23,11,29,23.20
2010,06,23,11,30,23.20
2010,06,23,11,31,23.30
2010,06,23,11,32,23.30
2010,06,23,11,33,23.30
2010,06,23,11,34,23.30
2010,06,23,11,35,23.30
2010,06,23,11,36,23.30
2010,06,23,11,37,23.40
2010,06,23,11,38,23.40
2010,06,23,11,39,23.40
2010,06,23,11,40,23.30
2010,06,23,11,41,23.20
2010,06,23,11,42,23.10
2010,06,23,11,43,23.00
2010,06,23,11,44,22.90
2010,06,23,11,45,22.90
2010,06,23,11,46,22.90
2010,06,23,11,47,22.90
2010,06,23,11,48,22.90
2010,06,23,11,49,22.90
2010,06,23,11,50,22.90
2010,06,23,11,51,23.00
2010,06,23,11,52,23.10
2010,06,23,11,53,23.10
2010,06,23,11,54,23.10
2010,06,23,11,55,23.10
2010,06,23,11,56,23.20
2010,06,23,11,57,23.20
2010,06,23,11,58,23.10
2010,06,23,11,59,23.00
2010,06,23,12,00,22.90
2010,06,23,12,01,22.90
2010,06,23,12,02,23.00
2010,06,23,12,03,23.10
2010,06,23,12,04,23.00
2010,06,23,12,05,23.00
2010,06,23,12,06,23.10
2010,06,23,12,07,23.10
2010,06,23,12,08,23.00
2010,06,23,12,09,22.90
2010,06,23,12,10,22.90
2010,06,23,12,11,22.90
2010,06,23,12,12,23.00
2010,06,23,12,13,23.00
2010,06,23,12,14,23.00
2010,06,23,12,15,23.10
2010,06,23,12,16,23.20
2010,06,23,12,17,23.30
2010,06,23,12,18,23.30
2010,06,23,12,19,23.40
2010,06,23,12,20,23.40
2010,06,23,12,21,23.40
2010,06,23,12,22,23.60
2010,06,23,12,23,23.60
2010,06,23,12,24,23.70
2010,06,23,12,25,23.70
2010,06,23,12,26,23.80
2010,06,23,12,27,23.90
2010,06,23,12,28,23.90
2010,06,23,12,29,23.90
2010,06,23,12,30,23.90
2010,06,23,12,31,23.90
2010,06,23,12,32,23.80
2010,06,23,12,33,23.80
2010,06,23,12,34,23.70
2010,06,23,12,35,23.70
2010,06,23,12,36,23.70
2010,06,23,12,37,23.60
2010,06,23,12,38,23.60
2010,06,23,12,39,23.60
2010,06,23,12,40,23.60
2010,06,23,12,41,23.50
2010,06,23,12,42,23.40
2010,06,23,12,43,23.40
2010,06,23,12,44,23.30
2010,06,23,12,45,23.40
2010,06,23,12,46,23.60
2010,06,23,12,47,23.70
2010,06,23,12,48,23.70
2010,06,23,12,49,23.70
2010,06,23,12,50,23.70
2010,06,23,12,51,23.70
2010,06,23,12,52,23.80
2010,06,23,12,53,23.80
2010,06,23,12,54,23.70
2010,06,23,12,55,23.70
2010,06,23,12,56,23.70
2010,06,23,12,57,23.60
2010,06,23,12,58,23.60
2010,06,23,12,59,23.60
2010,06,23,13,00,23.60
2010,06,23,13,01,23.70
2010,06,23,13,02,23.70
2010,06,23,13,03,23.80
2010,06,23,13,04,23.80
2010,06,23,13,05,23.90
2010,06,23,13,06,23.90
2010,06,23,13,07,24.00
2010,06,23,13,08,23.90
2010,06,23,13,09,23.70
2010,06,23,13,10,23.60
2010,06,23,13,11,23.40
2010,06,23,13,12,23.30
2010,06,23,13,13,23.10
2010,06,23,13,14,23.10
2010,06,23,13,15,23.10
2010,06,23,13,16,23.10
2010,06,23,13,17,23.10
2010,06,23,13,18,23.10
2010,06,23,13,19,23.10
2010,06,23,13,20,23.20
2010,06,23,13,21,23.20
2010,06,23,13,22,23.20
2010,06,23,13,23,23.20
2010,06,23,13,24,23.20
2010,06,23,13,25,23.20
2010,06,23,13,26,23.20
2010,06,23,13,27,23.20
2010,06,23,13,28,23.20
2010,06,23,13,29,23.20
2010,06,23,13,30,23.20
2010,06,23,13,31,23.10
2010,06,23,13,32,23.10
2010,06,23,13,33,23.10
2010,06,23,13,34,23.20
2010,06,23,13,35,23.20
2010,06,23,13,36,23.20
2010,06,23,13,37,23.20
2010,06,23,13,38,23.10
2010,06,23,13,39,23.10
2010,06,23,13,40,23.00
2010,06,23,13,41,22.90
2010,06,23,13,42,22.90
2010,06,23,13,43,22.80
2010,06,23,13,44,22.80
2010,06,23,13,45,22.80
2010,06,23,13,46,22.80
2010,06,23,13,47,22.80
2010,06,23,13,48,22.80
2010,06,23,13,49,22.80
2010,06,23,13,50,22.80
2010,06,23,13,51,22.80
2010,06,23,13,52,22.90
2010,06,23,13,53,23.00
2010,06,23,13,54,23.10
2010,06,23,13,55,23.20
2010,06,23,13,56,23.20
2010,06,23,13,57,23.30
2010,06,23,13,58,23.30
2010,06,23,13,59,23.20
2010,06,23,14,00,23.20
2010,06,23,14,01,23.30
2010,06,23,14,02,23.20
2010,06,23,14,03,23.30
2010,06,23,14,04,23.30
2010,06,23,14,05,23.30
2010,06,23,14,06,23.30
2010,06,23,14,07,23.30
2010,06,23,14,08,23.30
2010,06,23,14,09,23.30
2010,06,23,14,10,23.30
2010,06,23,14,11,23.20
2010,06,23,14,12,23.20
2010,06,23,14,13,23.10
2010,06,23,14,14,23.10
2010,06,23,14,15,23.10
2010,06,23,14,16,23.10
2010,06,23,14,17,23.00
2010,06,23,14,18,22.90
2010,06,23,14,19,22.90
2010,06,23,14,20,22.90
2010,06,23,14,21,22.90
2010,06,23,14,22,22.90
2010,06,23,14,23,22.90
2010,06,23,14,24,22.90
2010,06,23,14,25,22.90
2010,06,23,14,26,22.90
2010,06,23,14,27,22.90
2010,06,23,14,28,22.90
2010,06,23,14,29,22.80
2010,06,23,14,30,22.80
2010,06,23,14,31,22.60
2010,06,23,14,32,22.60
2010,06,23,14,33,22.50
2010,06,23,14,34,22.30
2010,06,23,14,35,22.30
2010,06,23,14,36,22.20
2010,06,23,14,37,22.20
2010,06,23,14,38,22.10
2010,06,23,14,39,22.00
2010,06,23,14,40,22.00
2010,06,23,14,41,21.90
2010,06,23,14,42,21.90
2010,06,23,14,43,21.90
2010,06,23,14,44,21.90
2010,06,23,14,45,21.90
2010,06,23,14,46,21.90
2010,06,23,14,47,21.90
2010,06,23,14,48,21.90
2010,06,23,14,49,21.90
2010,06,23,14,50,21.90
2010,06,23,14,51,21.90
2010,06,23,14,52,22.00
2010,06,23,14,53,22.00
2010,06,23,14,54,22.10
2010,06,23,14,55,22.20
2010,06,23,14,56,22.20
2010,06,23,14,57,22.30
2010,06,23,14,58,22.30
2010,06,23,14,59,22.40
2010,06,23,15,00,22.50
2010,06,23,15,01,22.60
2010,06,23,15,02,22.60
2010,06,23,15,03,22.70
2010,06,23,15,04,22.70
2010,06,23,15,05,22.70
2010,06,23,15,06,22.80
2010,06,23,15,07,22.80
2010,06,23,15,08,22.80
2010,06,23,15,09,22.80
2010,06,23,15,10,22.80
2010,06,23,15,11,22.80
2010,06,23,15,12,22.90
2010,06,23,15,13,22.90
2010,06,23,15,14,22.90
2010,06,23,15,15,23.00
2010,06,23,15,16,23.10
2010,06,23,15,17,23.10
2010,06,23,15,18,23.00
2010,06,23,15,19,22.90
2010,06,23,15,20,22.90
2010,06,23,15,21,23.00
2010,06,23,15,22,23.10
2010,06,23,15,23,23.00
2010,06,23,15,24,22.90
2010,06,23,15,25,22.90
2010,06,23,15,26,22.90
2010,06,23,15,27,22.90
2010,06,23,15,28,22.90
2010,06,23,15,29,22.90
2010,06,23,15,30,22.90
2010,06,23,15,31,22.90
2010,06,23,15,32,22.90
2010,06,23,15,33,22.90
2010,06,23,15,34,23.00
2010,06,23,15,35,23.10
2010,06,23,15,36,23.10
2010,06,23,15,37,23.10
2010,06,23,15,38,23.20
2010,06,23,15,39,23.20
2010,06,23,15,40,23.30
2010,06,23,15,41,23.30
2010,06,23,15,42,23.30
2010,06,23,15,43,23.30
2010,06,23,15,44,23.30
2010,06,23,15,45,23.30
2010,06,23,15,46,23.40
2010,06,23,15,47,23.50
2010,06,23,15,48,23.70
2010,06,23,15,49,23.70
2010,06,23,15,50,23.80
2010,06,23,15,51,23.90
2010,06,23,15,52,24.10
2010,06,23,15,53,24.20
2010,06,23,15,54,24.20
2010,06,23,15,55,24.20
2010,06,23,15,56,24.20
2010,06,23,15,57,24.20
2010,06,23,15,58,24.20
2010,06,23,15,59,24.10
2010,06,23,16,00,24.00
2010,06,23,16,01,23.90
2010,06,23,16,02,23.90
2010,06,23,16,03,24.00
2010,06,23,16,04,24.10
2010,06,23,16,05,24.10
2010,06,23,16,06,24.20
2010,06,23,16,07,24.30
2010,06,23,16,08,24.30
2010,06,23,16,09,24.30
2010,06,23,16,10,24.40
2010,06,23,16,11,24.40
2010,06,23,16,12,24.50
2010,06,23,16,13,24.50
2010,06,23,16,14,24.50
2010,06,23,16,15,24.50
2010,06,23,16,16,24.50
2010,06,23,16,17,24.50
2010,06,23,16,18,24.50
2010,06,23,16,19,24.50
2010,06,23,16,20,24.50
2010,06,23,16,21,24.30
2010,06,23,16,22,24.30
2010,06,23,16,23,24.20
2010,06,23,16,24,24.20
2010,06,23,16,25,24.20
2010,06,23,16,26,24.30
2010,06,23,16,27,24.30
2010,06,23,16,28,24.30
2010,06,23,16,29,24.30
2010,06,23,16,30,24.30
2010,06,23,16,31,24.30
2010,06,23,16,32,24.20
2010,06,23,16,33,24.20
2010,06,23,16,34,24.20
2010,06,23,16,35,24.10
2010,06,23,16,36,24.10
2010,06,23,16,37,24.00
2010,06,23,16,38,23.90
2010,06,23,16,39,23.90
2010,06,23,16,40,23.80
2010,06,23,16,41,23.80
2010,06,23,16,42,23.80
2010,06,23,16,43,23.70
2010,06,23,16,44,23.70
2010,06,23,16,45,23.70
2010,06,23,16,46,23.70
2010,06,23,16,47,23.70
2010,06,23,16,48,23.70
2010,06,23,16,49,23.70
2010,06,23,16,50,23.60
2010,06,23,16,51,23.60
2010,06,23,16,52,23.60
2010,06,23,16,53,23.60
2010,06,23,16,54,23.60
2010,06,23,16,55,23.50
2010,06,23,16,56,23.40
2010,06,23,16,57,23.40
2010,06,23,16,58,23.40
2010,06,23,16,59,23.30
2010,06,23,17,00,23.30
2010,06,23,17,01,23.30
2010,06,23,17,02,23.30
2010,06,23,17,03,23.30
2010,06,23,17,04,23.30
2010,06,23,17,05,23.30
2010,06,23,17,06,23.30
2010,06,23,17,07,23.30
2010,06,23,17,08,23.30
2010,06,23,17,09,23.30
2010,06,23,17,10,23.30
2010,06,23,17,11,23.30
2010,06,23,17,12,23.40
2010,06,23,17,13,23.40
2010,06,23,17,14,23.40
2010,06,23,17,15,23.40
2010,06,23,17,16,23.40
2010,06,23,17,17,23.40
2010,06,23,17,18,23.30
2010,06,23,17,19,23.30